User: anonymous   Login
Location: Newark
(40.4500°N, 15.1500°E)
Time: 21:59:17
(UTC+00:00)
Language:

EO-88 - Orbit

View from above orbital plane
View from above orbital plane
View from above satellite
View from above satellite

Ground track
Ground track

The orbit data is extracted from the following two-line orbital elements,

1 42017U 17008BX  20052.26469772 +.00001692 +00000-0 +68287-4 0  9995
2 42017 097.3742 121.4818 0006809 030.2922 329.8709 15.26157826167672
Epoch (UTC): 21 February 2020 06:21:09
Eccentricity: 0.0006809
inclination: 97.3742°
perigee height: 482 km
apogee height: 492 km
right ascension of ascending node: 121.4818°
argument of perigee: 30.2922°
revolutions per day: 15.26157826
mean anomaly at epoch: 329.8709°
orbit number at epoch: 16767

The dashed part of the orbit path shows where the satellite is in the earth's shadow,  

DLR